www.pogodaiklimat.ru

Погода и климат >> Архив погоды >> Россия >> Нижегородская область >> Нижний Новгород


АРХИВ ПОГОДЫ в Нижнем Новгороде

Время (UTC), дата Ветер
(напр.,м/с)
 
Видим.   Явления Облачность Т
(С)
Тd
(С)
f
(%)
Тe
(С)
Тes
(С)
Комфортность P
(гПа)
Po
(гПа)
Тmin
(С)
Tmax
(С)
R
(мм)
R24
(мм)
S
(см)
21 9.08 штиль 0
{1}
10 км ясно +11.3 +9.9 91 +11 +11 холодно 1025.7 1006.6
00 10.08 З 1-2
{2}
10 км ясно +11.7 +11.0 95 +11 +11 прохладно 1025.9 1006.8
03 10.08 З 1-2
{2}
10 км 3/0
[Ac trans]
+14.8 +10.9 77 +15 +16 по сезону 1026.1 1007.2 +11.0
06 10.08 З 1-3
{4}
10 км 3/0
[Ci fib]
+19.9 +11.8 60 +23 +31 комфорт 1025.5 1006.9
09 10.08 СЗ 3-6
{6}
10 км 3/0
[Ci fib]
+24.6 +12.0 45 +26 +36 жарко 1024.3 1006.1
12 10.08 СЗ 2-8
{8}
10 км 3/1 1000 м
[Cu hum Ci fib]
+26.8 +10.7 36 +28 +34 жарко 1022.6 1004.5
15 10.08 З 2-6
{8}
10 км 5/0
[Ci fib]
+26.0 +12.1 42 +27 +28 жарко 1021.6 1003.5 +27.5
18 10.08 штиль 0
{6}
10 км 4/0
[Ci fib]
+20.8 +14.7 68 +23 +23 комфорт 1022.2 1003.8
21 10.08 штиль 0-1
{3}
10 км 4/0
[Ci fib]
+19.1 +13.3 69 +20 +20 тепло 1022.4 1003.8
00 11.08 штиль 0
{2}
10 км 4/0
[Ci fib]
+16.1 +13.8 86 +16 +16 тепло 1022.2 1003.5
03 11.08 З 1-3
{3}
10 км 4/3 1000 м
[Cu hum Ci fib]
+17.7 +14.2 80 +19 +19 тепло 1021.9 1003.3 +15.9
06 11.08 З 1-4
{5}
10 км 4/3 1000 м
[Cu hum Ci fib]
+22.7 +15.4 63 +27 +33 душно 1021.2 1002.9
09 11.08 З 3-7
{8}
10 км 4/4 1000 м
[Cu hum]
+27.2 +12.7 41 +29 +35 жарко 1019.8 1001.8
12 11.08 З 2-5
{8}
10 км 4/4 1000 м
[Cu hum]
+28.1 +11.7 36 +29 +34 жарко 1018.4 1000.5
15 11.08 З 3-5
{7}
10 км 4/4 1000 м
[Cu hum]
+26.5 +13.2 44 +28 +29 жарко 1017.2 999.2 +28.7
18 11.08 штиль 0
{6}
10 км 3/0
[Ac trans]
+20.2 +11.8 58 +22 +22 комфорт 1017.9 999.5
21 11.08 штиль 0
{2}
10 км 3/0
[Ac trans]
+17.2 +14.4 84 +17 +17 по сезону 1017.6 999.0
00 12.08 штиль 0
{2}
10 км ясно +14.9 +11.9 82 +15 +15 по сезону 1017.4 998.6
03 12.08 штиль 0
{2}
10 км ясно +17.9 +12.7 72 +18 +19 тепло 1016.6 998.1 +14.6
06 12.08 З 2-3
{3}
10 км ясно +22.4 +13.8 58 +26 +33 жарко 1015.4 997.2
09 12.08 З 2-4
{6}
10 км 3/3 1000 м
[Cu hum]
+26.4 +11.3 39 +28 +36 жарко 1014.2 996.3
12 12.08 ЮЗ 2-5
{8}
10 км 3/3 1000 м
[Cu hum]
+27.0 +10.7 36 +28 +33 жарко 1012.7 994.8
15 12.08 З 1-4
{6}
10 км 3/0
[Ci fib]
+26.7 +10.7 37 +28 +29 жарко 1011.1 993.2 +27.7
18 12.08 штиль 0
{4}
10 км ясно +21.1 +12.0 56 +23 +23 комфорт 1010.2 992.0
21 12.08 штиль 0-1
{3}
10 км ясно +21.1 +12.2 57 +23 +23 комфорт 1009.4 991.2
00 13.08 З 1-3
{5}
10 км 3/0
[Ci fib]
+19.4 +11.9 62 +22 +22 комфорт 1009.0 990.7
03 13.08 З 1-3
{4}
10 км 8/3 600 м
[Cu hum Ci fib]
+17.9 +12.9 73 +19 +20 тепло 1009.5 991.2 +17.3
06 13.08 З 2-4
{6}
10 км 8/0
[Ci fib]
+20.6 +10.5 52 +23 +29 комфорт 1009.3 991.1
09 13.08 З 7-7
{10}
10 км 6/4 1000 м
[Cu hum Ci fib]
+23.1 +8.8 40 +24 +26 комфорт 1008.7 990.6
12 13.08 З 3-8
{10}
10 км 8/5 1000 м
[Cu hum Ci fib]
+23.2 +6.5 34 +24 +27 комфорт 1008.4 990.3
15 13.08 З 4-9
{9}
10 км 10/4 600 м
[Sc diur, vesp Ac trans]
+21.7 +6.4 37 +22 +23 комфорт 1007.8 989.7 +24.0
18 13.08 З 1-3
{9}
10 км 5/0
[Ci fib]
+18.5 +8.0 50 +20 +20 тепло 1008.7 990.4
21 13.08 ЮЗ 1-3
{6}
10 км 3/0
[Ci fib]
+16.9 +9.0 60 +18 +18 тепло 1009.1 990.7
00 14.08 З 1-4
{4}
10 км 3/0
[Ci fib]
+14.7 +9.4 71 +15 +15 по сезону 1009.8 991.2
03 14.08 З 1-3
{4}
10 км 3/0
[Ac trans]
+14.4 +9.3 71 +15 +16 по сезону 1011.1 992.5 +14.1
06 14.08 З 2-3
{5}
10 км 3/0
[Ac trans]
+17.5 +11.0 66 +18 +24 по сезону 1011.8 993.4
09 14.08 СЗ 1-3
{6}
10 км 8/8 600 м
[Cu med, cong]
+21.1 +7.8 42 +22 +25 комфорт 1012.4 994.1
12 14.08 З 2-5
{7}
10 км 8/8 600 м
[Cb cap]
+22.8 +7.6 38 +24 +25 комфорт 1012.7 994.5
15 14.08 СЗ 1-3
{6}
10 км 8/8 1000 м
[Cu med, cong]
+21.6 +7.3 40 +23 +23 комфорт 1013.2 994.9 +23.5
18 14.08 штиль 0
{4}
10 км 3/0
[Ac trans]
+16.5 +10.7 69 +16 +16 по сезону 1014.7 996.2
21 14.08 штиль 0-1
{1}
10 км ясно +12.9 +9.2 78 +12 +12 прохладно 1015.8 997.0
00 15.08 штиль 0
{1}
10 км 3/3 1000 м
[Cu hum]
+12.0 +9.2 83 +11 +11 прохладно 1016.3 997.5
03 15.08 штиль 0
{1}
10 км 8/1 1000 м
[Cu hum Ci fib]
+14.3 +9.9 75 +14 +15 по сезону 1016.7 997.9 +12.0
06 15.08 З 1-3
{4}
10 км 3/0
[Ci fib]
+21.1 +8.9 46 +22 +30 комфорт 1016.0 997.6
09 15.08 ЮЗ 1-5
{7}
10 км 9/3 1000 м
[Sc diur, vesp Ac cast Ci fib]
+24.5 +9.0 37 +25 +31 комфорт 1014.9 996.8
12 15.08 Ю 2-5
{6}
10 км 9/3 1000 м
[Sc diur, vesp Ac cast Ci fib]
+25.3 +10.4 39 +26 +29 жарко 1013.1 995.1
15 15.08 ЮЗ 1-3
{7}
10 км слабый ливневой дождь 10/10 600 м
[Cb cap]
+23.9 +13.2 51 +26 +26 жарко 1011.6 993.6 +26.4 0.0
18 15.08 Ю 1-4
{7}
10 км {ливн. осадки} 8/3 1000 м
[Cb cap Ac cuf]
+21.6 +15.2 67 +25 +25 комфорт 1010.5 992.4
21 15.08 Ю 1-1
{7}
4000 м слабый ливневой дождь {гроза} 10/3 600 м
[Cb cap As op]
+18.3 +17.1 93 +20 +20 тепло 1010.0 991.7
00 16.08 З 1-4
{5}
10 км {гроза, ливн. осадки} 3/3 1000 м
[Sc diur, vesp]
+18.0 +15.4 85 +19 +19 тепло 1009.2 990.8
03 16.08 З 2-6
{7}
10 км 10/10 1000 м
[Sc]
+17.9 +16.4 91 +18 +18 тепло 1010.2 991.8 +17.8 4
06 16.08 З 2-6
{7}
10 км 9/9 600 м
[Cb cap]
+19.5 +16.4 82 +22 +23 комфорт 1011.3 993.0
09 16.08 СЗ 1-6
{8}
10 км 8/6 600 м
[Sc Ac trans]
+20.7 +15.5 72 +25 +29 комфорт 1012.4 994.1
12 16.08 СЗ 1-3
{8}
10 км слабый ливневой дождь 10/10 300 м
[Cb cap]
+18.0 +16.5 91 +19 +19 по сезону 1014.3 996.0
15 16.08 С 2-5
{6}
10 км в посл. час ливневой дождь 8/6 300 м
[Cb cap Ac trans]
+17.6 +14.7 83 +18 +18 по сезону 1015.7 997.3 +21.0 2
18 16.08 С 1-3
{7}
10 км {ливн. осадки} 9/3 1000 м
[Sc Ac trans]
+15.5 +12.4 82 +16 +16 по сезону 1017.7 999.0

 

Местоположение метеостанции Нижний Новгород (Нижегородская область, Россия): широта 56.27 долгота 44.00 высота над уровнем моря 157 м.

В архиве по умолчанию представлена погода в Нижнем Новгороде за последнюю неделю. Архивные данные за месяц целиком и за предыдущие месяцы, начиная с января 2011 года, Вы можете получить, выбрав интересующий диапазон дат из раскрывающегося списка и нажав кнопку "Ввод!".


*Определитесь, кто Вы:
робот инопланетянин человек

Внимание! Время в таблицах - всемирное. Для получения местного времени необходимо прибавить поправку, которая в Нижнем Новгороде равна 3 ч.

Смотрите также архив погоды в соседних городах и на ближайших метеорологических станциях:

Погода в Нижнем Новгороде аэропорт (Нижегородская область, Россия) (15 км)
Погода в Дальнем Константиново (Нижегородская область, Россия) (53 км)
Погода в Балахне (Нижегородская область, Россия) (54 км)
Погода в Волжской ГМО (Нижегородская область, Россия) (57 км)
Погода в Семенове (Нижегородская область, Россия) (60 км)
Погода в Павлово (Нижегородская область, Россия) (70 км)
Погода в Лысково (Нижегородская область, Россия) (70 км)
Погода в Арзамасе (Нижегородская область, Россия) (101 км)
Погода в Воскресенском (Нижегородская область, Россия) (106 км)
Погода в Вязниках (Владимирская область, Россия) (113 км)

Пояснения к столбцам:

Ветер - указаны скорость ветра в м/с - средняя за 10 мин, порывы в срок и между сроками (в фигурных скобках) и направление, откуда дует ветер: С - северный, СВ - северо-восточный, В - восточный, ЮВ - юго-восточный, Ю - южный, ЮЗ - юго-западный, З - западный, СЗ - северо-западный.
Видимость - горизонтальная дальность видимости в метрах или километрах. При видимости от 1 до 10 км при отсутствии осадков обычно наблюдается дымка, при ухудшении видимости до 1 км и менее - туман. В сухую погоду видимость может ухудшаться дымом, пылью или мглою.
Явления - указаны атмосферные явления, наблюдавшиеся в срок или в последний час перед сроком; фигурными скобками обозначены явления, наблюдавшиеся между сроками (за 1-3 часа до срока); квадратными скобками обозначены град или гололедные отложения с указанием их диаметра в мм.
Облачность - указаны через наклонную черту общая и нижняя облачность в баллах и высота нижней границы облаков в метрах; квадратными скобками обозначены формы облаков: Ci - перистые, Cs - перисто-слоистые, Cc - перисто-кучевые, Ac - высококучевые, As - высокослоистые, Sc - слоисто-кучевые, Ns - слоисто-дождевые, Cu - кучевые, Cb - кучево-дождевые. Подробнее классификацию облаков см. в Атласе облаков (PDF).
T - Температура воздуха - температура, измеренная на высоте 2 м над землей.
Td - Температура точки росы - температура, при понижении до которой содержащийся в воздухе водяной пар достигнет насыщения.
f - Относительная влажность воздуха - влажноcть воздуха, измеренная на высоте 2 м над землей.
Te - Эффективная температура - температура, которую ощущает одетый по сезону человек в тени. Характеристика душности погоды. При расчете учитывается влияние влажности воздуха и скорости ветра на теплоощущения человека.
Tes - Эффективная температура на солнце - температура, которую ощущает человек, с поправкой на солнечный нагрев. Характеристика знойности погоды. Зависит от высоты солнца над горизонтом, облачности и скорости ветра. Ночью, в пасмурную погоду, а также при ветре 12 м/с и более поправка равна нулю.
P - Атмосферное давление - приведенное к уровню моря атмосферное давление.
Po - Атмосферное давление - измеренное на уровне метеостанции атмосферное давление.
Tmin - Минимальная температура - минимум температуры воздуха на высоте 2 м над землей.
Tmax - Максимальная температура - максимум температуры воздуха на высоте 2 м над землей.
R - Количество осадков - Количество выпавших осадков за период времени, мм. При наведении курсора мыши на число - период времени, за который выпало указанное количество осадков.
R24 - Количество осадков - Количество выпавших осадков за 24 часа, мм.
S - Снежный покров - Высота снежного покрова, см. При наведении курсора мыши на число - состояние снежного покрова и степень покрытия местности в баллах.